User: anonymous   Login
Location: Knowlton
(51.2333°N, 1.2667°E)
Time: 00:22:34
(UTC+00:00)
Language:

Spot 2 Rocket - Orbit

View from above orbital plane
View from above orbital plane
View from above satellite
View from above satellite

Ground track
Ground track

The orbit data is extracted from the following two-line orbital elements,

1 20443U 90005H   21169.20357603  .00000024  00000-0  22338-4 0  9990
2 20443  98.5283 235.4528 0009811 339.3255  20.7533 14.38130039644688
Epoch (UTC): 18 June 2021 04:53:08
Eccentricity: 0.0009811
inclination: 98.5283°
perigee height: 757 km
apogee height: 771 km
right ascension of ascending node: 235.4528°
argument of perigee: 339.3255°
revolutions per day: 14.38130039
mean anomaly at epoch: 20.7533°
orbit number at epoch: 64468

The dashed part of the orbit path shows where the satellite is in the earth's shadow,  

DLR